Погода в Вышгороде

Украина / Киевская область     50°34′59″N   30°29′08″E
темп.,
°C
ветер,
м/с
пор.,
м/с
влажн.,
%
обл.,
%
осадки,
мм/ч
давл.,
гПа
погр.,
м
23 апреля, пт
пт2300:00+10юз3980100 1.2 1015437
03:00+9зюз258922 1.3 1015223
06:00+7сз4788100 0.1 1016529
09:00+6ссз2683100 3.2 1017510
12:00+9зсз4557100 0.0 10171398
15:00+10зсз3545100 0.0 10171620
18:00+11з4638100 0.0 10162019
21:00+8з38555 0.0 1017696
24 апреля, сб
сб2400:00+6зсз496627 0.0 1017559
03:00+4з511725 0.0 1017548
06:00+3з4117398 0.0 1017531
09:00+5зсз6105261 0.0 10181723
12:00+7зсз7940100 0.0 10192441
15:00+8зсз7939100 0.1 10192387
18:00+8зсз693650 0.0 10192634
21:00+6з27501 0.0 1021619
25 апреля, вс
вс2500:00+4зюз38537 0.0 1020295
03:00+3юз39615 0.0 1019315
06:00+3ююз5126277 0.0 1018423
09:00+6з697399 0.1 1017938
12:00+4зсз588495 0.1 1018753
15:00+8з593896 0.3 10182174
18:00+9зсз583263 0.0 10172296
21:00+5сз36505 0.0 1018442
26 апреля, пн
пн2600:00+4з24583 0.0 1018154
03:00+2з24625 0.0 1018157
06:00+2зюз26664 0.0 1017178
09:00+5з36495 0.0 1017656
12:00+9з4633100 0.2 10152752
15:00+8зюз5746100 0.4 10151834
18:00+6сз696896 1.1 10151076
21:00+4з37645 1.6 1015426
27 апреля, вт
вт2700:00+2з38702 0.0 1015264
03:00+2зюз38724 0.0 1015252
06:00+1зюз3106964 0.0 1015303
09:00+5зюз51050100 0.0 1014699
12:00+8з6940100 0.0 10142153
15:00+10зсз6843100 0.1 10142091
18:00+9зсз575183 0.0 10141563
21:00+7сз266325 0.0 1016602